Terminal Aerodrome Forecast
Issued by NWS Memphis, TN

Home | Current Version | Previous Version | Text Only | Print | Product List | Glossary On
Versions: 1 2 3 4 5 6 7 8 9 10 11 12 13 14 15 16 17 18 19 20 21 22 23 24 25 26
649
FTUS44 KMEG 090523 CCB
TAFMEM
TAF COR
KMEM 090523Z 0906/1006 32010G16KT P6SM BKN060 OVC100
     FM091400 31015G22KT P6SM BKN060 BKN250
     FM092200 31012KT P6SM SCT060 SCT250
     FM100100 32007KT P6SM FEW060 SCT250=

USA.gov is the U.S. government's official web portal to all federal, state and local government web resources and services.